TimeWEST,TemperatureF,Dew PointF,Humidity,Sea Level PressureIn,VisibilityMPH,Wind Direction,Wind SpeedMPH,Gust SpeedMPH,PrecipitationIn,Events,Conditions,WindDirDegrees,DateUTC
12:00 AM,60,54,76,29.82,6,South,13.8,,,,,190,2013-04-28 00:00:00
12:00 AM,60.8,53.6,77,29.80,-9999.0,South,13.8,-,N/A,,Clear,190,2013-04-28 00:00:00
1:00 AM,59.0,55.4,88,29.80,-9999.0,South,13.8,-,N/A,,Clear,180,2013-04-28 01:00:00
3:00 AM,59.0,53.6,82,29.77,-9999.0,South,10.4,-,N/A,,Clear,180,2013-04-28 02:00:00
4:00 AM,59,54,77,29.79,6,South,9.2,,,,,180,2013-04-28 03:00:00
4:00 AM,59.0,53.6,82,29.77,-9999.0,South,9.2,-,N/A,,Clear,180,2013-04-28 03:00:00
5:00 AM,59.0,53.6,82,29.77,6.2,SW,4.6,-,N/A,,Mostly Cloudy,220,2013-04-28 04:00:00
6:00 AM,59.0,51.8,77,29.77,6.2,SSW,6.9,-,N/A,,Mostly Cloudy,200,2013-04-28 05:00:00
7:00 AM,59,51,68,29.79,6,South,9.2,,,,Mostly Cloudy,190,2013-04-28 06:00:00
7:00 AM,59.0,51.8,77,29.77,6.2,South,9.2,-,N/A,,Mostly Cloudy,190,2013-04-28 06:00:00
8:00 AM,59.0,51.8,77,29.80,6.2,WSW,3.5,-,N/A,,Mostly Cloudy,250,2013-04-28 07:00:00
9:00 AM,62.6,53.6,72,29.80,-9999.0,SSW,4.6,-,N/A,,Mostly Cloudy,200,2013-04-28 08:00:00
10:00 AM,64,51,52,29.81,6,South,6.9,,,,Mostly Cloudy,190,2013-04-28 09:00:00
10:00 AM,64.4,50.0,59,29.80,6.2,South,6.9,-,N/A,,Mostly Cloudy,190,2013-04-28 09:00:00
11:00 AM,68.0,50.0,52,29.80,6.2,SSE,5.8,-,N/A,,Scattered Clouds,160,2013-04-28 10:00:00
12:00 PM,69.8,48.2,46,29.77,6.2,South,4.6,-,N/A,,Scattered Clouds,190,2013-04-28 11:00:00
1:00 PM,71,49,34,29.75,6,WSW,6.9,,,,Partly Cloudy,250,2013-04-28 12:00:00
1:00 PM,71.6,48.2,43,29.74,6.2,WSW,6.9,-,N/A,,Scattered Clouds,250,2013-04-28 12:00:00
2:00 PM,73.4,42.8,33,29.71,6.2,SW,13.8,-,N/A,,Scattered Clouds,230,2013-04-28 13:00:00
3:00 PM,75.2,44.6,34,29.71,6.2,WSW,11.5,-,N/A,,Partly Cloudy,250,2013-04-28 14:00:00
4:00 PM,76,44,21,29.69,6,West,13.8,,,,Scattered Clouds,260,2013-04-28 15:00:00
4:00 PM,75.2,44.6,34,29.68,6.2,West,13.8,-,N/A,,Partly Cloudy,260,2013-04-28 15:00:00
5:00 PM,75.2,44.6,34,29.68,6.2,SW,11.5,-,N/A,,Partly Cloudy,230,2013-04-28 16:00:00
6:00 PM,73.4,44.6,36,29.68,6.2,SSW,10.4,-,N/A,,Partly Cloudy,210,2013-04-28 17:00:00
7:00 PM,71,44,26,29.68,6,WSW,12.7,,,,Scattered Clouds,240,2013-04-28 18:00:00
7:00 PM,71.6,42.8,35,29.68,6.2,WSW,12.7,-,N/A,,Partly Cloudy,240,2013-04-28 18:00:00
8:00 PM,68.0,42.8,40,29.68,6.2,WSW,6.9,-,N/A,,Unknown,250,2013-04-28 19:00:00
9:00 PM,62.6,46.4,55,29.71,6.2,South,5.8,-,N/A,,Unknown,170,2013-04-28 20:00:00
10:00 PM,60,47,51,29.75,6,SSE,10.4,,,,,160,2013-04-28 21:00:00
10:00 PM,62.6,46.4,55,29.71,-9999.0,South,6.9,-,N/A,,Clear,170,2013-04-28 21:00:00
11:00 PM,59.0,46.4,63,29.77,-9999.0,SSE,11.5,-,N/A,,Clear,160,2013-04-28 22:00:00
12:00 AM,59.0,46.4,63,29.77,-9999.0,SSE,8.1,-,N/A,,Clear,160,2013-04-28 23:00:00